When you browse on this site, cookies collect data to enhance your experience and personalize the content and advertising you see.
Visit our Privacy Policy to learn more. By continuing to use the site, you agree to this use of cookies and data.
  • In Portugal
  • List of Countries
  • For 7 days
  • Water Temperature
  • Weather Map
  • Weather Widgets
  • user-avatar
    Login

    Hourly Weather Klagenfurt

    Today, 23 September, Monday

    Time Temperature Precipitation Wind Pressure Humidity
    00:00 +10°C° 0 mm 1 mps 688 mmHg 93%
    01:00 +10°C° 0 mm 1 mps 688 mmHg 93%
    02:00 +10°C° 0 mm 1 mps 687 mmHg 93%
    03:00 +10°C° 0 mm 1 mps 687 mmHg 94%
    04:00 +10°C° 0 mm 1 mps 687 mmHg 95%
    05:00 +11°C° 0 mm 1 mps 687 mmHg 93%
    06:00 +12°C° 0 mm 1 mps 687 mmHg 92%
    07:00 +13°C° 0 mm 1 mps 687 mmHg 91%
    08:00 +14°C° 0.2 mm 1 mps 688 mmHg 87%
    09:00 +16°C° 0.2 mm 1 mps 688 mmHg 82%
    10:00 +19°C° 0.2 mm 1 mps 688 mmHg 77%
    11:00 +18°C° 0.9 mm 1 mps 688 mmHg 82%
    12:00 +16°C° 0.9 mm 0 mps 688 mmHg 87%
    13:00 +16°C° 0 mm 1 mps 688 mmHg 91%
    14:00 +16°C° 2.6 mm 1 mps 688 mmHg 93%
    15:00 +15°C° 2.6 mm 1 mps 688 mmHg 95%
    16:00 +14°C° 2.6 mm 1 mps 687 mmHg 98%
    17:00 +14°C° 4.9 mm 1 mps 688 mmHg 98%
    18:00 +13°C° 4.9 mm 1 mps 688 mmHg 98%
    19:00 +12°C° 4.9 mm 1 mps 688 mmHg 98%
    20:00 +12°C° 1.5 mm 1 mps 688 mmHg 97%
    21:00 +12°C° 1.5 mm 1 mps 688 mmHg 97%
    22:00 +12°C° 1.5 mm 1 mps 689 mmHg 97%
    23:00 +12°C° 0.2 mm 1 mps 689 mmHg 97%

    Tomorrow, 24 September, Tuesday

    Time Temperature Precipitation Wind Pressure Humidity
    00:00 +11°C° 0.2 mm 1 mps 689 mmHg 96%
    01:00 +11°C° 0.2 mm 1 mps 689 mmHg 96%
    02:00 +11°C° 0.1 mm 1 mps 689 mmHg 95%
    03:00 +11°C° 0.1 mm 1 mps 689 mmHg 95%
    04:00 +11°C° 0.1 mm 1 mps 689 mmHg 94%
    05:00 +11°C° 0 mm 1 mps 689 mmHg 94%
    06:00 +11°C° 0 mm 1 mps 689 mmHg 93%
    07:00 +11°C° 0 mm 1 mps 689 mmHg 93%
    08:00 +13°C° 0 mm 1 mps 689 mmHg 86%
    09:00 +15°C° 0 mm 1 mps 689 mmHg 79%
    10:00 +18°C° 0 mm 1 mps 690 mmHg 72%
    11:00 +18°C° 0 mm 1 mps 690 mmHg 69%
    12:00 +19°C° 0 mm 1 mps 689 mmHg 65%
    13:00 +20°C° 0 mm 1 mps 689 mmHg 61%
    14:00 +19°C° 0.1 mm 1 mps 689 mmHg 67%
    15:00 +19°C° 0.1 mm 1 mps 688 mmHg 72%
    16:00 +18°C° 0.1 mm 1 mps 688 mmHg 78%
    17:00 +16°C° 0 mm 1 mps 687 mmHg 82%
    18:00 +14°C° 0 mm 1 mps 687 mmHg 87%
    19:00 +13°C° 0 mm 1 mps 687 mmHg 91%
    20:00 +11°C° 0 mm 0 mps 687 mmHg 92%
    21:00 +11°C° 0 mm 0 mps 687 mmHg 93%
    22:00 +10°C° 0 mm 0 mps 687 mmHg 93%
    23:00 +10°C° 0 mm 0 mps 687 mmHg 94%

    Day after tomorrow, 25 September, Wednesday

    Time Temperature Precipitation Wind Pressure Humidity
    00:00 +10°C° 0 mm 0 mps 687 mmHg 94%
    01:00 +9°C° 0 mm 0 mps 687 mmHg 94%
    02:00 +9°C° 0 mm 0 mps 686 mmHg 94%
    03:00 +9°C° 0 mm 0 mps 686 mmHg 94%
    04:00 +9°C° 0 mm 0 mps 686 mmHg 94%
    05:00 +9°C° 0 mm 0 mps 686 mmHg 93%
    06:00 +10°C° 0 mm 0 mps 686 mmHg 91%
    07:00 +10°C° 0 mm 0 mps 686 mmHg 90%
    08:00 +12°C° 0 mm 0 mps 687 mmHg 84%
    09:00 +14°C° 0 mm 0 mps 687 mmHg 78%
    10:00 +16°C° 0 mm 0 mps 688 mmHg 72%
    11:00 +16°C° 0.4 mm 0 mps 688 mmHg 73%
    12:00 +19°C° 0.4 mm 1 mps 687 mmHg 74%
    13:00 +19°C° 0.4 mm 1 mps 687 mmHg 75%
    14:00 +18°C° 0.9 mm 1 mps 687 mmHg 81%
    15:00 +15°C° 0.9 mm 0 mps 687 mmHg 87%
    16:00 +14°C° 0.9 mm 0 mps 686 mmHg 93%
    17:00 +14°C° 2.2 mm 1 mps 686 mmHg 94%
    18:00 +13°C° 2.2 mm 1 mps 687 mmHg 96%
    19:00 +12°C° 2.2 mm 1 mps 687 mmHg 97%
    20:00 +12°C° 2 mm 1 mps 687 mmHg 97%
    21:00 +11°C° 2 mm 1 mps 687 mmHg 97%
    22:00 +11°C° 2 mm 1 mps 687 mmHg 96%
    23:00 +10°C° 0.2 mm 1 mps 687 mmHg 96%

    26 September, Thursday

    Time Temperature Precipitation Wind Pressure Humidity
    00:00 +10°C° 0.2 mm 1 mps 687 mmHg 95%
    01:00 +10°C° 0.2 mm 1 mps 687 mmHg 94%
    02:00 +10°C° 0.1 mm 1 mps 687 mmHg 94%
    03:00 +10°C° 0.1 mm 1 mps 687 mmHg 94%
    04:00 +9°C° 0.1 mm 0 mps 688 mmHg 93%
    05:00 +9°C° 0 mm 0 mps 688 mmHg 93%
    06:00 +9°C° 0 mm 0 mps 688 mmHg 93%
    07:00 +9°C° 0 mm 0 mps 688 mmHg 93%
    08:00 +11°C° 0 mm 0 mps 689 mmHg 86%
    09:00 +13°C° 0 mm 0 mps 690 mmHg 79%
    10:00 +16°C° 0 mm 1 mps 691 mmHg 72%
    11:00 +18°C° 0 mm 1 mps 691 mmHg 66%
    12:00 +19°C° 0 mm 1 mps 691 mmHg 61%
    13:00 +20°C° 0 mm 1 mps 691 mmHg 55%
    14:00 +19°C° 0 mm 1 mps 691 mmHg 57%
    15:00 +19°C° 0 mm 1 mps 691 mmHg 60%
    16:00 +18°C° 0 mm 1 mps 691 mmHg 62%
    17:00 +15°C° 0 mm 1 mps 691 mmHg 71%
    18:00 +13°C° 0 mm 1 mps 691 mmHg 79%
    19:00 +11°C° 0 mm 1 mps 690 mmHg 87%
    20:00 +11°C° 0 mm 1 mps 691 mmHg 88%
    21:00 +11°C° 0 mm 1 mps 691 mmHg 89%
    22:00 +10°C° 0 mm 1 mps 691 mmHg 89%
    23:00 +10°C° 0 mm 1 mps 691 mmHg 89%

    27 September, Friday

    Time Temperature Precipitation Wind Pressure Humidity
    00:00 +9°C° 0 mm 0 mps 691 mmHg 89%
    01:00 +9°C° 0 mm 0 mps 691 mmHg 89%
    02:00 +9°C° 0 mm 0 mps 691 mmHg 89%
    03:00 +9°C° 0 mm 0 mps 691 mmHg 90%
    04:00 +8°C° 0 mm 0 mps 691 mmHg 90%
    05:00 +9°C° 0 mm 0 mps 691 mmHg 88%
    06:00 +9°C° 0 mm 0 mps 691 mmHg 87%
    07:00 +10°C° 0 mm 0 mps 691 mmHg 85%
    08:00 +12°C° 0 mm 0 mps 692 mmHg 77%
    09:00 +15°C° 0 mm 0 mps 692 mmHg 68%
    10:00 +18°C° 0 mm 0 mps 693 mmHg 60%
    11:00 +20°C° 0 mm 1 mps 693 mmHg 58%
    12:00 +21°C° 0 mm 1 mps 693 mmHg 56%
    13:00 +21°C° 0 mm 1 mps 692 mmHg 54%
    14:00 +21°C° 0 mm 1 mps 692 mmHg 58%
    15:00 +20°C° 0 mm 1 mps 692 mmHg 62%
    16:00 +20°C° 0 mm 1 mps 691 mmHg 67%
    17:00 +18°C° 0 mm 1 mps 691 mmHg 74%
    18:00 +14°C° 0 mm 1 mps 691 mmHg 81%
    19:00 +12°C° 0 mm 1 mps 691 mmHg 88%
    20:00 +12°C° 0 mm 1 mps 691 mmHg 88%
    21:00 +12°C° 0 mm 1 mps 691 mmHg 87%
    22:00 +12°C° 0 mm 1 mps 692 mmHg 86%
    23:00 +11°C° 0 mm 1 mps 691 mmHg 86%

    28 September, Saturday

    Time Temperature Precipitation Wind Pressure Humidity
    00:00 +10°C° 0 mm 0 mps 691 mmHg 85%
    01:00 +10°C° 0 mm 0 mps 691 mmHg 85%
    02:00 +10°C° 0 mm 0 mps 691 mmHg 85%
    03:00 +9°C° 0 mm 0 mps 691 mmHg 85%
    04:00 +9°C° 0 mm 0 mps 691 mmHg 85%
    05:00 +10°C° 0 mm 0 mps 691 mmHg 84%
    06:00 +10°C° 0 mm 0 mps 691 mmHg 83%
    07:00 +10°C° 0 mm 0 mps 691 mmHg 82%
    08:00 +13°C° 0 mm 0 mps 692 mmHg 76%
    09:00 +15°C° 0 mm 0 mps 693 mmHg 69%
    10:00 +17°C° 0 mm 0 mps 693 mmHg 62%
    11:00 +20°C° 0 mm 1 mps 693 mmHg 61%
    12:00 +20°C° 0 mm 1 mps 693 mmHg 59%
    13:00 +21°C° 0 mm 1 mps 693 mmHg 58%
    14:00 +20°C° 0.1 mm 1 mps 693 mmHg 61%
    15:00 +20°C° 0.1 mm 1 mps 692 mmHg 65%
    16:00 +20°C° 0.1 mm 1 mps 692 mmHg 69%
    17:00 +18°C° 0 mm 1 mps 692 mmHg 76%
    18:00 +15°C° 0 mm 1 mps 692 mmHg 83%
    19:00 +13°C° 0 mm 1 mps 691 mmHg 90%
    20:00 +12°C° 0 mm 1 mps 692 mmHg 91%
    21:00 +12°C° 0 mm 1 mps 692 mmHg 92%
    22:00 +11°C° 0 mm 0 mps 692 mmHg 92%
    23:00 +10°C° 0 mm 0 mps 691 mmHg 93%
    Show more